BEIDOU-3 M6 (C24)

Last updated on Sun Jun 21 2026 00:03:32 GMT+0000 (Coordinated Universal Time)

1 43582U 18062B 26171.19229804 .00000066 00000+0 00000+0 0 9991 2 43582 54.0852 182.1905 0005006 8.6086 351.4220 1.86227785 53699
UTC large
Height (km)
Speed (km/s)
/
Latitude / Longitude
Inclination (degrees)
Orbital Period (minutes)
Azimuth
Elevation
Range (km)
Doppler Factor

Next 0 passes for location: London (51.5072 / 0.1276)

No passes found over London.
BEIDOU-3 M6 (C24)